Year,Month,Day,Hour,Minute,Value (Times are PST for windgust in km/hr)
2023,02,03,00,00,8.10
2023,02,03,00,01,6.40
2023,02,03,00,02,6.40
2023,02,03,00,03,6.40
2023,02,03,00,04,4.80
2023,02,03,00,05,4.80
2023,02,03,00,06,6.40
2023,02,03,00,07,6.40
2023,02,03,00,08,8.10
2023,02,03,00,09,3.20
2023,02,03,00,10,6.40
2023,02,03,00,11,4.80
2023,02,03,00,12,4.80
2023,02,03,00,13,1.60
2023,02,03,00,14,12.90
2023,02,03,00,15,3.20
2023,02,03,00,16,9.60
2023,02,03,00,17,6.40
2023,02,03,00,18,9.60
2023,02,03,00,19,8.10
2023,02,03,00,20,3.20
2023,02,03,00,21,3.20
2023,02,03,00,22,6.40
2023,02,03,00,23,8.10
2023,02,03,00,24,8.10
2023,02,03,00,25,6.40
2023,02,03,00,26,9.60
2023,02,03,00,27,4.80
2023,02,03,00,28,3.20
2023,02,03,00,29,6.40
2023,02,03,00,30,6.40
2023,02,03,00,31,8.10
2023,02,03,00,32,11.30
2023,02,03,00,33,3.20
2023,02,03,00,34,11.30
2023,02,03,00,35,8.10
2023,02,03,00,36,9.60
2023,02,03,00,37,6.40
2023,02,03,00,38,6.40
2023,02,03,00,39,8.10
2023,02,03,00,40,11.30
2023,02,03,00,41,9.60
2023,02,03,00,42,4.80
2023,02,03,00,43,6.40
2023,02,03,00,44,4.80
2023,02,03,00,45,3.20
2023,02,03,00,46,1.60
2023,02,03,00,47,9.60
2023,02,03,00,48,8.10
2023,02,03,00,49,6.40
2023,02,03,00,50,8.10
2023,02,03,00,51,9.60
2023,02,03,00,52,8.10
2023,02,03,00,53,9.60
2023,02,03,00,54,6.40
2023,02,03,00,55,3.20
2023,02,03,00,56,6.40
2023,02,03,00,57,4.80
2023,02,03,00,58,4.80
2023,02,03,00,59,12.90
2023,02,03,01,00,12.90
2023,02,03,01,01,14.50
2023,02,03,01,02,11.30
2023,02,03,01,03,12.90
2023,02,03,01,04,14.50
2023,02,03,01,05,8.10
2023,02,03,01,06,4.80
2023,02,03,01,07,8.10
2023,02,03,01,08,11.30
2023,02,03,01,09,9.60
2023,02,03,01,10,12.90
2023,02,03,01,11,11.30
2023,02,03,01,12,12.90
2023,02,03,01,13,9.60
2023,02,03,01,14,11.30
2023,02,03,01,15,11.30
2023,02,03,01,16,12.90
2023,02,03,01,17,4.80
2023,02,03,01,18,6.40
2023,02,03,01,19,8.10
2023,02,03,01,20,8.10
2023,02,03,01,21,6.40
2023,02,03,01,22,6.40
2023,02,03,01,23,9.60
2023,02,03,01,24,9.60
2023,02,03,01,25,9.60
2023,02,03,01,26,9.60
2023,02,03,01,27,8.10
2023,02,03,01,28,11.30
2023,02,03,01,29,6.40
2023,02,03,01,30,4.80
2023,02,03,01,31,4.80
2023,02,03,01,32,6.40
2023,02,03,01,33,9.60
2023,02,03,01,34,8.10
2023,02,03,01,35,8.10
2023,02,03,01,36,9.60
2023,02,03,01,37,6.40
2023,02,03,01,38,4.80
2023,02,03,01,39,6.40
2023,02,03,01,40,8.10
2023,02,03,01,41,8.10
2023,02,03,01,42,6.40
2023,02,03,01,43,4.80
2023,02,03,01,44,4.80
2023,02,03,01,45,6.40
2023,02,03,01,46,6.40
2023,02,03,01,47,11.30
2023,02,03,01,48,9.60
2023,02,03,01,49,9.60
2023,02,03,01,50,8.10
2023,02,03,01,51,8.10
2023,02,03,01,52,3.20
2023,02,03,01,53,3.20
2023,02,03,01,54,6.40
2023,02,03,01,55,6.40
2023,02,03,01,56,6.40
2023,02,03,01,57,8.10
2023,02,03,01,58,11.30
2023,02,03,01,59,6.40
2023,02,03,02,00,8.10
2023,02,03,02,01,8.10
2023,02,03,02,02,9.60
2023,02,03,02,03,4.80
2023,02,03,02,04,6.40
2023,02,03,02,05,12.90
2023,02,03,02,06,11.30
2023,02,03,02,07,8.10
2023,02,03,02,08,8.10
2023,02,03,02,09,12.90
2023,02,03,02,10,12.90
2023,02,03,02,11,11.30
2023,02,03,02,12,3.20
2023,02,03,02,13,4.80
2023,02,03,02,14,4.80
2023,02,03,02,15,9.60
2023,02,03,02,16,3.20
2023,02,03,02,17,4.80
2023,02,03,02,18,9.60
2023,02,03,02,19,6.40
2023,02,03,02,20,6.40
2023,02,03,02,21,12.90
2023,02,03,02,22,4.80
2023,02,03,02,23,11.30
2023,02,03,02,24,12.90
2023,02,03,02,25,6.40
2023,02,03,02,26,12.90
2023,02,03,02,27,14.50
2023,02,03,02,28,12.90
2023,02,03,02,29,12.90
2023,02,03,02,30,12.90
2023,02,03,02,31,9.60
2023,02,03,02,32,11.30
2023,02,03,02,33,8.10
2023,02,03,02,34,6.40
2023,02,03,02,35,8.10
2023,02,03,02,36,6.40
2023,02,03,02,37,8.10
2023,02,03,02,38,11.30
2023,02,03,02,39,8.10
2023,02,03,02,40,16.10
2023,02,03,02,41,4.80
2023,02,03,02,42,11.30
2023,02,03,02,43,11.30
2023,02,03,02,44,4.80
2023,02,03,02,45,6.40
2023,02,03,02,46,6.40
2023,02,03,02,47,9.60
2023,02,03,02,48,4.80
2023,02,03,02,49,4.80
2023,02,03,02,50,6.40
2023,02,03,02,51,6.40
2023,02,03,02,52,12.90
2023,02,03,02,53,12.90
2023,02,03,02,54,11.30
2023,02,03,02,55,9.60
2023,02,03,02,56,3.20
2023,02,03,02,57,6.40
2023,02,03,02,58,11.30
2023,02,03,02,59,8.10
2023,02,03,03,00,9.60
2023,02,03,03,01,9.60
2023,02,03,03,02,8.10
2023,02,03,03,03,6.40
2023,02,03,03,04,9.60
2023,02,03,03,05,9.60
2023,02,03,03,06,12.90
2023,02,03,03,07,4.80
2023,02,03,03,08,3.20
2023,02,03,03,09,3.20
2023,02,03,03,10,3.20
2023,02,03,03,11,6.40
2023,02,03,03,12,3.20
2023,02,03,03,14,6.40
2023,02,03,03,15,8.10
2023,02,03,03,16,11.30
2023,02,03,03,17,14.50
2023,02,03,03,18,11.30
2023,02,03,03,19,9.60
2023,02,03,03,20,6.40
2023,02,03,03,21,9.60
2023,02,03,03,22,6.40
2023,02,03,03,23,6.40
2023,02,03,03,24,11.30
2023,02,03,03,25,6.40
2023,02,03,03,26,9.60
2023,02,03,03,27,9.60
2023,02,03,03,28,1.60
2023,02,03,03,29,8.10
2023,02,03,03,30,6.40
2023,02,03,03,31,6.40
2023,02,03,03,32,4.80
2023,02,03,03,33,6.40
2023,02,03,03,34,6.40
2023,02,03,03,35,4.80
2023,02,03,03,36,9.60
2023,02,03,03,37,3.20
2023,02,03,03,38,6.40
2023,02,03,03,39,4.80
2023,02,03,03,40,6.40
2023,02,03,03,41,6.40
2023,02,03,03,42,6.40
2023,02,03,03,43,4.80
2023,02,03,03,44,12.90
2023,02,03,03,45,16.10
2023,02,03,03,46,19.30
2023,02,03,03,47,16.10
2023,02,03,03,48,6.40
2023,02,03,03,49,6.40
2023,02,03,03,50,4.80
2023,02,03,03,51,3.20
2023,02,03,03,52,6.40
2023,02,03,03,53,11.30
2023,02,03,03,54,11.30
2023,02,03,03,55,19.30
2023,02,03,03,56,6.40
2023,02,03,03,57,4.80
2023,02,03,03,58,6.40
2023,02,03,03,59,9.60
2023,02,03,04,00,11.30
2023,02,03,04,01,6.40
2023,02,03,04,02,8.10
2023,02,03,04,03,6.40
2023,02,03,04,04,14.50
2023,02,03,04,05,6.40
2023,02,03,04,06,6.40
2023,02,03,04,07,6.40
2023,02,03,04,08,3.20
2023,02,03,04,09,1.60
2023,02,03,04,10,1.60
2023,02,03,04,11,3.20
2023,02,03,04,13,4.80
2023,02,03,04,14,3.20
2023,02,03,04,15,3.20
2023,02,03,04,16,1.60
2023,02,03,04,18,3.20
2023,02,03,04,19,4.80
2023,02,03,04,20,6.40
2023,02,03,04,21,9.60
2023,02,03,04,22,12.90
2023,02,03,04,23,16.10
2023,02,03,04,24,17.70
2023,02,03,04,25,17.70
2023,02,03,04,26,17.70
2023,02,03,04,27,16.10
2023,02,03,04,28,14.50
2023,02,03,04,29,12.90
2023,02,03,04,30,14.50
2023,02,03,04,31,14.50
2023,02,03,04,32,14.50
2023,02,03,04,33,16.10
2023,02,03,04,34,12.90
2023,02,03,04,35,12.90
2023,02,03,04,36,12.90
2023,02,03,04,37,12.90
2023,02,03,04,38,12.90
2023,02,03,04,39,12.90
2023,02,03,04,40,12.90
2023,02,03,04,41,9.60
2023,02,03,04,42,12.90
2023,02,03,04,43,8.10
2023,02,03,04,44,9.60
2023,02,03,04,45,9.60
2023,02,03,04,46,8.10
2023,02,03,04,47,6.40
2023,02,03,04,48,6.40
2023,02,03,04,49,4.80
2023,02,03,04,50,1.60
2023,02,03,04,51,1.60
2023,02,03,04,54,1.60
2023,02,03,04,55,9.60
2023,02,03,04,56,9.60
2023,02,03,04,57,6.40
2023,02,03,04,58,4.80
2023,02,03,04,59,3.20
2023,02,03,05,00,4.80
2023,02,03,05,01,4.80
2023,02,03,05,02,6.40
2023,02,03,05,03,4.80
2023,02,03,05,04,4.80
2023,02,03,05,05,4.80
2023,02,03,05,06,3.20
2023,02,03,05,07,3.20
2023,02,03,05,08,4.80
2023,02,03,05,09,8.10
2023,02,03,05,10,8.10
2023,02,03,05,11,9.60
2023,02,03,05,12,6.40
2023,02,03,05,13,3.20
2023,02,03,05,14,3.20
2023,02,03,05,15,3.20
2023,02,03,05,16,4.80
2023,02,03,05,17,3.20
2023,02,03,05,18,3.20
2023,02,03,05,19,4.80
2023,02,03,05,20,9.60
2023,02,03,05,21,6.40
2023,02,03,05,22,8.10
2023,02,03,05,23,8.10
2023,02,03,05,24,8.10
2023,02,03,05,25,4.80
2023,02,03,05,26,4.80
2023,02,03,05,27,4.80
2023,02,03,05,28,8.10
2023,02,03,05,29,8.10
2023,02,03,05,30,6.40
2023,02,03,05,31,3.20
2023,02,03,05,32,3.20
2023,02,03,05,33,3.20
2023,02,03,05,34,4.80
2023,02,03,05,35,9.60
2023,02,03,05,36,4.80
2023,02,03,05,37,4.80
2023,02,03,05,38,4.80
2023,02,03,05,39,8.10
2023,02,03,05,40,8.10
2023,02,03,05,41,6.40
2023,02,03,05,42,4.80
2023,02,03,05,43,6.40
2023,02,03,05,44,6.40
2023,02,03,05,45,11.30
2023,02,03,05,46,8.10
2023,02,03,05,47,12.90
2023,02,03,05,48,11.30
2023,02,03,05,49,9.60
2023,02,03,05,50,6.40
2023,02,03,05,51,4.80
2023,02,03,05,52,4.80
2023,02,03,05,53,4.80
2023,02,03,05,54,6.40
2023,02,03,05,55,9.60
2023,02,03,05,56,6.40
2023,02,03,05,57,8.10
2023,02,03,05,58,9.60
2023,02,03,05,59,8.10
2023,02,03,06,00,4.80
2023,02,03,06,01,12.90
2023,02,03,06,02,8.10
2023,02,03,06,03,6.40
2023,02,03,06,04,6.40
2023,02,03,06,05,11.30
2023,02,03,06,06,6.40
2023,02,03,06,07,8.10
2023,02,03,06,08,6.40
2023,02,03,06,09,6.40
2023,02,03,06,10,9.60
2023,02,03,06,11,6.40
2023,02,03,06,12,6.40
2023,02,03,06,13,4.80
2023,02,03,06,14,9.60
2023,02,03,06,15,11.30
2023,02,03,06,16,14.50
2023,02,03,06,17,6.40
2023,02,03,06,18,6.40
2023,02,03,06,19,3.20
2023,02,03,06,20,6.40
2023,02,03,06,21,8.10
2023,02,03,06,22,8.10
2023,02,03,06,23,6.40
2023,02,03,06,24,6.40
2023,02,03,06,25,8.10
2023,02,03,06,26,9.60
2023,02,03,06,27,4.80
2023,02,03,06,28,4.80
2023,02,03,06,29,4.80
2023,02,03,06,30,3.20
2023,02,03,06,32,3.20
2023,02,03,06,33,6.40
2023,02,03,06,34,4.80
2023,02,03,06,35,6.40
2023,02,03,06,36,4.80
2023,02,03,06,37,3.20
2023,02,03,06,38,8.10
2023,02,03,06,39,8.10
2023,02,03,06,40,4.80
2023,02,03,06,41,4.80
2023,02,03,06,42,3.20
2023,02,03,06,44,4.80
2023,02,03,06,45,4.80
2023,02,03,06,46,4.80
2023,02,03,06,47,6.40
2023,02,03,06,48,6.40
2023,02,03,06,49,8.10
2023,02,03,06,50,8.10
2023,02,03,06,51,11.30
2023,02,03,06,52,3.20
2023,02,03,06,53,3.20
2023,02,03,06,54,6.40
2023,02,03,06,55,6.40
2023,02,03,06,56,6.40
2023,02,03,06,57,4.80
2023,02,03,06,58,4.80
2023,02,03,06,59,6.40
2023,02,03,07,00,6.40
2023,02,03,07,01,6.40
2023,02,03,07,02,4.80
2023,02,03,07,03,3.20
2023,02,03,07,04,3.20
2023,02,03,07,05,8.10
2023,02,03,07,06,6.40
2023,02,03,07,07,9.60
2023,02,03,07,08,9.60
2023,02,03,07,09,9.60
2023,02,03,07,10,9.60
2023,02,03,07,11,4.80
2023,02,03,07,12,4.80
2023,02,03,07,13,6.40
2023,02,03,07,14,11.30
2023,02,03,07,15,3.20
2023,02,03,07,16,1.60
2023,02,03,07,17,11.30
2023,02,03,07,18,4.80
2023,02,03,07,19,4.80
2023,02,03,07,20,4.80
2023,02,03,07,21,9.60
2023,02,03,07,22,6.40
2023,02,03,07,23,8.10
2023,02,03,07,24,6.40
2023,02,03,07,25,4.80
2023,02,03,07,26,8.10
2023,02,03,07,27,4.80
2023,02,03,07,28,8.10
2023,02,03,07,29,3.20
2023,02,03,07,30,3.20
2023,02,03,07,31,1.60
2023,02,03,07,32,1.60
2023,02,03,07,33,1.60
2023,02,03,07,34,3.20
2023,02,03,07,35,4.80
2023,02,03,07,36,3.20
2023,02,03,07,37,6.40
2023,02,03,07,38,6.40
2023,02,03,07,39,6.40
2023,02,03,07,40,11.30
2023,02,03,07,41,6.40
2023,02,03,07,42,6.40
2023,02,03,07,43,4.80
2023,02,03,07,44,4.80
2023,02,03,07,45,4.80
2023,02,03,07,46,1.60
2023,02,03,07,47,3.20
2023,02,03,07,48,1.60
2023,02,03,07,49,1.60
2023,02,03,07,50,4.80
2023,02,03,07,51,4.80
2023,02,03,07,52,4.80
2023,02,03,07,53,3.20
2023,02,03,07,54,4.80
2023,02,03,07,55,6.40
2023,02,03,07,56,6.40
2023,02,03,07,57,4.80
2023,02,03,07,58,6.40
2023,02,03,07,59,6.40
2023,02,03,08,00,6.40
2023,02,03,08,01,6.40
2023,02,03,08,02,9.60
2023,02,03,08,03,9.60
2023,02,03,08,04,4.80
2023,02,03,08,05,6.40
2023,02,03,08,06,11.30
2023,02,03,08,07,9.60
2023,02,03,08,08,9.60
2023,02,03,08,09,8.10
2023,02,03,08,10,6.40
2023,02,03,08,11,11.30
2023,02,03,08,12,11.30
2023,02,03,08,13,6.40
2023,02,03,08,14,6.40
2023,02,03,08,15,6.40
2023,02,03,08,16,6.40
2023,02,03,08,17,6.40
2023,02,03,08,18,9.60
2023,02,03,08,19,9.60
2023,02,03,08,20,8.10
2023,02,03,08,21,8.10
2023,02,03,08,22,4.80
2023,02,03,08,23,3.20
2023,02,03,08,24,3.20
2023,02,03,08,31,3.20
2023,02,03,08,32,4.80
2023,02,03,08,33,3.20
2023,02,03,08,34,3.20
2023,02,03,08,35,3.20
2023,02,03,08,36,1.60
2023,02,03,08,37,1.60
2023,02,03,08,38,1.60
2023,02,03,08,39,3.20
2023,02,03,08,40,1.60
2023,02,03,08,46,1.60
2023,02,03,08,47,3.20
2023,02,03,08,48,4.80
2023,02,03,08,49,6.40
2023,02,03,08,50,6.40
2023,02,03,08,51,6.40
2023,02,03,08,52,4.80
2023,02,03,08,53,6.40
2023,02,03,08,54,12.90
2023,02,03,08,55,12.90
2023,02,03,08,56,12.90
2023,02,03,08,57,9.60
2023,02,03,08,58,14.50
2023,02,03,08,59,12.90
2023,02,03,09,00,14.50
2023,02,03,09,01,14.50
2023,02,03,09,02,14.50
2023,02,03,09,03,14.50
2023,02,03,09,04,14.50
2023,02,03,09,05,12.90
2023,02,03,09,06,12.90
2023,02,03,09,07,9.60
2023,02,03,09,08,6.40
2023,02,03,09,09,1.60
2023,02,03,09,11,1.60
2023,02,03,09,12,1.60
2023,02,03,09,13,3.20
2023,02,03,09,14,3.20
2023,02,03,09,15,4.80
2023,02,03,09,16,4.80
2023,02,03,09,17,4.80
2023,02,03,09,18,8.10
2023,02,03,09,19,6.40
2023,02,03,09,20,6.40
2023,02,03,09,21,6.40
2023,02,03,09,22,6.40
2023,02,03,09,23,6.40
2023,02,03,09,24,6.40
2023,02,03,09,25,4.80
2023,02,03,09,26,3.20
2023,02,03,09,27,3.20
2023,02,03,09,37,3.20
2023,02,03,09,38,1.60
2023,02,03,09,39,1.60
2023,02,03,09,40,3.20
2023,02,03,09,41,3.20
2023,02,03,09,42,1.60
2023,02,03,09,50,1.60
2023,02,03,09,51,1.60
2023,02,03,09,52,3.20
2023,02,03,09,53,1.60
2023,02,03,09,54,1.60
2023,02,03,09,55,6.40
2023,02,03,09,56,6.40
2023,02,03,09,57,8.10
2023,02,03,09,58,8.10
2023,02,03,09,59,11.30
2023,02,03,10,00,12.90
2023,02,03,10,01,11.30
2023,02,03,10,02,9.60
2023,02,03,10,03,12.90
2023,02,03,10,04,9.60
2023,02,03,10,05,12.90
2023,02,03,10,06,12.90
2023,02,03,10,07,12.90
2023,02,03,10,08,12.90
2023,02,03,10,09,9.60
2023,02,03,10,10,12.90
2023,02,03,10,11,12.90
2023,02,03,10,12,9.60
2023,02,03,10,13,8.10
2023,02,03,10,14,8.10
2023,02,03,10,15,6.40
2023,02,03,10,16,4.80
2023,02,03,10,17,3.20
2023,02,03,10,18,3.20
2023,02,03,10,19,3.20
2023,02,03,10,20,3.20
2023,02,03,10,21,4.80
2023,02,03,10,22,4.80
2023,02,03,10,23,3.20
2023,02,03,10,24,3.20
2023,02,03,10,25,3.20
2023,02,03,10,26,4.80
2023,02,03,10,27,6.40
2023,02,03,10,28,6.40
2023,02,03,10,29,6.40
2023,02,03,10,30,6.40
2023,02,03,10,31,4.80
2023,02,03,10,32,1.60
2023,02,03,10,35,1.60
2023,02,03,10,36,4.80
2023,02,03,10,37,4.80
2023,02,03,10,38,3.20
2023,02,03,10,39,1.60
2023,02,03,10,40,3.20
2023,02,03,10,41,1.60
2023,02,03,10,44,4.80
2023,02,03,10,45,4.80
2023,02,03,10,46,4.80
2023,02,03,10,47,3.20
2023,02,03,10,50,3.20
2023,02,03,10,51,4.80
2023,02,03,10,52,4.80
2023,02,03,10,53,4.80
2023,02,03,10,54,4.80
2023,02,03,10,55,3.20
2023,02,03,10,56,1.60
2023,02,03,10,57,3.20
2023,02,03,10,58,6.40
2023,02,03,10,59,6.40
2023,02,03,11,00,3.20
2023,02,03,11,03,1.60
2023,02,03,11,04,1.60
2023,02,03,11,07,1.60
2023,02,03,11,08,4.80
2023,02,03,11,09,4.80
2023,02,03,11,10,3.20
2023,02,03,11,11,3.20
2023,02,03,11,12,3.20
2023,02,03,11,13,4.80
2023,02,03,11,14,3.20
2023,02,03,11,15,4.80
2023,02,03,11,16,3.20
2023,02,03,11,20,6.40
2023,02,03,11,21,6.40
2023,02,03,11,22,6.40
2023,02,03,11,23,6.40
2023,02,03,11,24,6.40
2023,02,03,11,25,4.80
2023,02,03,11,26,4.80
2023,02,03,11,27,4.80
2023,02,03,11,28,3.20
2023,02,03,11,29,1.60
2023,02,03,11,30,1.60
2023,02,03,11,31,1.60
2023,02,03,11,33,1.60
2023,02,03,11,34,3.20
2023,02,03,11,35,3.20
2023,02,03,11,36,6.40
2023,02,03,11,37,9.60
2023,02,03,11,38,11.30
2023,02,03,11,39,12.90
2023,02,03,11,40,12.90
2023,02,03,11,41,16.10
2023,02,03,11,42,16.10
2023,02,03,11,43,16.10
2023,02,03,11,44,14.50
2023,02,03,11,45,14.50
2023,02,03,11,46,12.90
2023,02,03,11,47,16.10
2023,02,03,11,48,17.70
2023,02,03,11,49,17.70
2023,02,03,11,50,17.70
2023,02,03,11,51,17.70
2023,02,03,11,52,14.50
2023,02,03,11,53,14.50
2023,02,03,11,54,14.50
2023,02,03,11,55,14.50
2023,02,03,11,56,12.90
2023,02,03,11,57,12.90
2023,02,03,11,58,14.50
2023,02,03,11,59,11.30
2023,02,03,12,00,11.30
2023,02,03,12,01,11.30
2023,02,03,12,02,11.30
2023,02,03,12,03,11.30
2023,02,03,12,04,11.30
2023,02,03,12,05,6.40
2023,02,03,12,06,6.40
2023,02,03,12,07,6.40
2023,02,03,12,08,8.10
2023,02,03,12,09,4.80
2023,02,03,12,10,11.30
2023,02,03,12,11,12.90
2023,02,03,12,12,9.60
2023,02,03,12,13,9.60
2023,02,03,12,14,12.90
2023,02,03,12,15,16.10
2023,02,03,12,16,22.50
2023,02,03,12,17,35.40
2023,02,03,12,18,32.20
2023,02,03,12,19,32.20
2023,02,03,12,20,35.40
2023,02,03,12,21,35.40
2023,02,03,12,22,32.20
2023,02,03,12,23,27.40
2023,02,03,12,24,27.40
2023,02,03,12,25,29.00
2023,02,03,12,26,40.20
2023,02,03,12,27,29.00
2023,02,03,12,28,32.20
2023,02,03,12,29,53.10
2023,02,03,12,30,37.00
2023,02,03,12,31,38.60
2023,02,03,12,32,43.50
2023,02,03,12,33,41.80
2023,02,03,12,34,54.70
2023,02,03,12,35,51.50
2023,02,03,12,36,45.10
2023,02,03,12,37,45.10
2023,02,03,12,38,48.30
2023,02,03,12,39,46.70
2023,02,03,12,40,41.80
2023,02,03,12,41,46.70
2023,02,03,12,42,38.60
2023,02,03,12,43,45.10
2023,02,03,12,44,35.40
2023,02,03,12,45,30.60
2023,02,03,12,46,48.30
2023,02,03,12,47,57.90
2023,02,03,12,48,38.60
2023,02,03,12,49,49.90
2023,02,03,12,50,54.70
2023,02,03,12,51,38.60
2023,02,03,12,52,41.80
2023,02,03,12,53,45.10
2023,02,03,12,54,43.50
2023,02,03,12,55,57.90
2023,02,03,12,56,51.50
2023,02,03,12,57,45.10
2023,02,03,12,58,54.70
2023,02,03,12,59,33.80
2023,02,03,13,00,38.60
2023,02,03,13,01,46.70
2023,02,03,13,02,57.90
2023,02,03,13,03,46.70
2023,02,03,13,04,48.30
2023,02,03,13,05,54.70
2023,02,03,13,06,46.70
2023,02,03,13,07,49.90
2023,02,03,13,08,46.70
2023,02,03,13,09,54.70
2023,02,03,13,10,59.50
2023,02,03,13,11,61.20
2023,02,03,13,12,54.70
2023,02,03,13,13,51.50
2023,02,03,13,14,48.30
2023,02,03,13,15,51.50
2023,02,03,13,16,43.50
2023,02,03,13,17,56.30
2023,02,03,13,18,56.30
2023,02,03,13,19,46.70
2023,02,03,13,20,51.50
2023,02,03,13,21,54.70
2023,02,03,13,22,66.00
2023,02,03,13,23,61.20
2023,02,03,13,24,56.30
2023,02,03,13,25,61.20
2023,02,03,13,26,57.90
2023,02,03,13,27,56.30
2023,02,03,13,28,61.20
2023,02,03,13,29,62.70
2023,02,03,13,30,62.70
2023,02,03,13,31,61.20
2023,02,03,13,32,66.00
2023,02,03,13,33,70.80
2023,02,03,13,34,67.60
2023,02,03,13,35,61.20
2023,02,03,13,36,56.30
2023,02,03,13,37,53.10
2023,02,03,13,38,48.30
2023,02,03,13,39,70.80
2023,02,03,13,40,61.20
2023,02,03,13,41,49.90
2023,02,03,13,42,56.30
2023,02,03,13,43,59.50
2023,02,03,13,44,49.90
2023,02,03,13,45,61.20
2023,02,03,13,46,64.40
2023,02,03,13,47,59.50
2023,02,03,13,48,49.90
2023,02,03,13,49,56.30
2023,02,03,13,50,64.40
2023,02,03,13,51,62.70
2023,02,03,13,52,62.70
2023,02,03,13,53,61.20
2023,02,03,13,54,64.40
2023,02,03,13,55,54.70
2023,02,03,13,56,57.90
2023,02,03,13,57,53.10
2023,02,03,13,58,56.30
2023,02,03,13,59,56.30
2023,02,03,14,00,64.40
2023,02,03,14,01,61.20
2023,02,03,14,02,59.50
2023,02,03,14,03,67.60
2023,02,03,14,04,64.40
2023,02,03,14,05,61.20
2023,02,03,14,06,56.30
2023,02,03,14,07,66.00
2023,02,03,14,08,61.20
2023,02,03,14,09,72.40
2023,02,03,14,10,64.40
2023,02,03,14,11,51.50
2023,02,03,14,12,54.70
2023,02,03,14,13,53.10
2023,02,03,14,14,57.90
2023,02,03,14,15,53.10
2023,02,03,14,16,56.30
2023,02,03,14,17,51.50
2023,02,03,14,18,49.90
2023,02,03,14,19,64.40
2023,02,03,14,20,61.20
2023,02,03,14,21,48.30
2023,02,03,14,22,66.00
2023,02,03,14,23,72.40
2023,02,03,14,24,64.40
2023,02,03,14,25,62.70
2023,02,03,14,26,72.40
2023,02,03,14,27,57.90
2023,02,03,14,28,64.40
2023,02,03,14,29,57.90
2023,02,03,14,30,66.00
2023,02,03,14,31,54.70
2023,02,03,14,32,53.10
2023,02,03,14,33,56.30
2023,02,03,14,34,51.50
2023,02,03,14,35,61.20
2023,02,03,14,36,56.30
2023,02,03,14,37,53.10
2023,02,03,14,38,46.70
2023,02,03,14,39,51.50
2023,02,03,14,40,49.90
2023,02,03,14,41,56.30
2023,02,03,14,42,61.20
2023,02,03,14,43,46.70
2023,02,03,14,44,54.70
2023,02,03,14,45,54.70
2023,02,03,14,46,51.50
2023,02,03,14,47,54.70
2023,02,03,14,48,62.70
2023,02,03,14,49,53.10
2023,02,03,14,50,61.20
2023,02,03,14,51,62.70
2023,02,03,14,52,66.00
2023,02,03,14,53,67.60
2023,02,03,14,54,64.40
2023,02,03,14,55,54.70
2023,02,03,14,56,53.10
2023,02,03,14,57,53.10
2023,02,03,14,58,61.20
2023,02,03,14,59,56.30
2023,02,03,15,00,66.00
2023,02,03,15,01,64.40
2023,02,03,15,02,53.10
2023,02,03,15,03,51.50
2023,02,03,15,04,61.20
2023,02,03,15,05,54.70
2023,02,03,15,06,59.50
2023,02,03,15,07,51.50
2023,02,03,15,08,46.70
2023,02,03,15,09,48.30
2023,02,03,15,10,53.10
2023,02,03,15,11,53.10
2023,02,03,15,12,45.10
2023,02,03,15,13,53.10
2023,02,03,15,14,59.50
2023,02,03,15,15,54.70
2023,02,03,15,16,57.90
2023,02,03,15,17,51.50
2023,02,03,15,18,62.70
2023,02,03,15,19,59.50
2023,02,03,15,20,61.20
2023,02,03,15,21,53.10
2023,02,03,15,22,54.70
2023,02,03,15,23,54.70
2023,02,03,15,24,64.40
2023,02,03,15,25,48.30
2023,02,03,15,26,56.30
2023,02,03,15,27,45.10
2023,02,03,15,28,54.70
2023,02,03,15,29,46.70
2023,02,03,15,30,45.10
2023,02,03,15,31,40.20
2023,02,03,15,32,48.30
2023,02,03,15,33,43.50
2023,02,03,15,34,45.10
2023,02,03,15,35,46.70
2023,02,03,15,36,51.50
2023,02,03,15,37,41.80
2023,02,03,15,38,54.70
2023,02,03,15,39,53.10
2023,02,03,15,40,53.10
2023,02,03,15,41,49.90
2023,02,03,15,42,46.70
2023,02,03,15,43,38.60
2023,02,03,15,44,43.50
2023,02,03,15,45,43.50
2023,02,03,15,46,43.50
2023,02,03,15,47,49.90
2023,02,03,15,48,49.90
2023,02,03,15,49,37.00
2023,02,03,15,50,40.20
2023,02,03,15,51,41.80
2023,02,03,15,52,40.20
2023,02,03,15,53,41.80
2023,02,03,15,54,48.30
2023,02,03,15,55,46.70
2023,02,03,15,56,41.80
2023,02,03,15,57,33.80
2023,02,03,15,58,37.00
2023,02,03,15,59,40.20
2023,02,03,16,00,37.00
2023,02,03,16,01,30.60
2023,02,03,16,02,38.60
2023,02,03,16,03,41.80
2023,02,03,16,04,37.00
2023,02,03,16,05,45.10
2023,02,03,16,06,43.50
2023,02,03,16,07,33.80
2023,02,03,16,08,35.40
2023,02,03,16,09,29.00
2023,02,03,16,10,37.00
2023,02,03,16,11,27.40
2023,02,03,16,12,35.40
2023,02,03,16,13,35.40
2023,02,03,16,14,43.50
2023,02,03,16,15,33.80
2023,02,03,16,16,46.70
2023,02,03,16,17,41.80
2023,02,03,16,18,46.70
2023,02,03,16,19,41.80
2023,02,03,16,20,33.80
2023,02,03,16,21,33.80
2023,02,03,16,22,27.40
2023,02,03,16,23,32.20
2023,02,03,16,24,37.00
2023,02,03,16,25,37.00
2023,02,03,16,26,38.60
2023,02,03,16,27,53.10
2023,02,03,16,28,48.30
2023,02,03,16,29,54.70
2023,02,03,16,30,59.50
2023,02,03,16,31,53.10
2023,02,03,16,32,49.90
2023,02,03,16,33,53.10
2023,02,03,16,34,48.30
2023,02,03,16,35,46.70
2023,02,03,16,36,37.00
2023,02,03,16,37,40.20
2023,02,03,16,38,35.40
2023,02,03,16,39,41.80
2023,02,03,16,40,30.60
2023,02,03,16,41,40.20
2023,02,03,16,42,32.20
2023,02,03,16,43,20.90
2023,02,03,16,44,25.70
2023,02,03,16,45,27.40
2023,02,03,16,46,35.40
2023,02,03,16,47,38.60
2023,02,03,16,48,32.20
2023,02,03,16,49,33.80
2023,02,03,16,50,37.00
2023,02,03,16,51,38.60
2023,02,03,16,52,35.40
2023,02,03,16,53,38.60
2023,02,03,16,54,38.60
2023,02,03,16,55,35.40
2023,02,03,16,56,38.60
2023,02,03,16,57,32.20
2023,02,03,16,58,37.00
2023,02,03,16,59,35.40
2023,02,03,17,00,43.50
2023,02,03,17,01,37.00
2023,02,03,17,02,38.60
2023,02,03,17,03,32.20
2023,02,03,17,04,22.50
2023,02,03,17,05,17.70
2023,02,03,17,06,25.70
2023,02,03,17,07,20.90
2023,02,03,17,08,32.20
2023,02,03,17,09,30.60
2023,02,03,17,10,19.30
2023,02,03,17,11,17.70
2023,02,03,17,12,25.70
2023,02,03,17,13,19.30
2023,02,03,17,14,20.90
2023,02,03,17,15,19.30
2023,02,03,17,16,19.30
2023,02,03,17,17,25.70
2023,02,03,17,18,25.70
2023,02,03,17,19,20.90
2023,02,03,17,20,19.30
2023,02,03,17,21,19.30
2023,02,03,17,22,19.30
2023,02,03,17,23,17.70
2023,02,03,17,24,17.70
2023,02,03,17,25,22.50
2023,02,03,17,26,24.20
2023,02,03,17,27,19.30
2023,02,03,17,28,22.50
2023,02,03,17,29,22.50
2023,02,03,17,30,17.70
2023,02,03,17,31,16.10
2023,02,03,17,32,19.30
2023,02,03,17,33,19.30
2023,02,03,17,34,27.40
2023,02,03,17,35,30.60
2023,02,03,17,36,25.70
2023,02,03,17,37,19.30
2023,02,03,17,38,20.90
2023,02,03,17,39,20.90
2023,02,03,17,40,17.70
2023,02,03,17,41,17.70
2023,02,03,17,42,19.30
2023,02,03,17,43,24.20
2023,02,03,17,44,17.70
2023,02,03,17,45,17.70
2023,02,03,17,46,16.10
2023,02,03,17,47,19.30
2023,02,03,17,48,20.90
2023,02,03,17,49,17.70
2023,02,03,17,50,19.30
2023,02,03,17,51,29.00
2023,02,03,17,52,27.40
2023,02,03,17,53,24.20
2023,02,03,17,54,20.90
2023,02,03,17,55,27.40
2023,02,03,17,56,35.40
2023,02,03,17,57,25.70
2023,02,03,17,58,24.20
2023,02,03,17,59,27.40
2023,02,03,18,00,25.70
2023,02,03,18,01,27.40
2023,02,03,18,02,24.20
2023,02,03,18,03,25.70
2023,02,03,18,04,32.20
2023,02,03,18,05,29.00
2023,02,03,18,06,27.40
2023,02,03,18,07,29.00
2023,02,03,18,08,29.00
2023,02,03,18,09,33.80
2023,02,03,18,10,33.80
2023,02,03,18,11,33.80
2023,02,03,18,12,33.80
2023,02,03,18,13,33.80
2023,02,03,18,14,24.20
2023,02,03,18,15,27.40
2023,02,03,18,16,29.00
2023,02,03,18,17,25.70
2023,02,03,18,18,25.70
2023,02,03,18,19,30.60
2023,02,03,18,20,29.00
2023,02,03,18,21,24.20
2023,02,03,18,22,27.40
2023,02,03,18,23,27.40
2023,02,03,18,24,32.20
2023,02,03,18,25,29.00
2023,02,03,18,26,30.60
2023,02,03,18,27,25.70
2023,02,03,18,28,32.20
2023,02,03,18,29,27.40
2023,02,03,18,30,35.40
2023,02,03,18,31,29.00
2023,02,03,18,32,30.60